Flag for Canada Weather past 2 weeks in Red Deer, Alberta, Canada

Now
0 °F

Passing clouds.


Feels Like: -8 °F
Forecast: -3 / 26 °F
Wind: 3 mph from South

Location: Red Deer

Current Time: Mar 1, 2015 at 9:11:47 AM

Latest Report: Mar 1, 2015 at 8:00 AM


Visibility: 15 mi

Pressure: 30.33 "Hg

Humidity: 84%

Dew point: -4 °F

Location of Red DeerLocation

Historic Weather in Red Deer — Graph

°F

Red Deer temperature yesterday

Maximum temperature yesterday: 27 °F (at 4:00 PM)
Minimum temperature yesterday: -2 °F (at 2:00 AM)
Average temperature yesterday: 13 °F

Past Weeks' High & Low Weather Summary

 TemperatureHumidityPressure
High46 °F (Feb 23, 4:00 PM)93% (Feb 14, 8:00 AM)30.74 "Hg (Feb 14, 8:00 AM)
Low-2 °F (Feb 21, 11:00 PM)42% (Feb 19, 2:00 PM)29.90 "Hg (Feb 19, 3:00 PM)
Average23 °F74%30.31 "Hg
* Reported Feb 14 8:00 AM — Mar 1 8:00 AM, Red Deer, Weather by CustomWeather, © 2015

Note: Actual official high and low records may vary slightly from our data, if they occured in-between our weather recording intervals... More about our weather records

Advertising

Red Deer weather history for previous 24 hours

 ConditionsComfort  
Time TempWeatherWind HumidityBarometerVisibility
8:00 AM
Sun, Mar 1
0 °FPassing clouds.3 mph84%30.33 "Hg15 mi
7:00 AM1 °FClear.3 mph85%30.34 "Hg15 mi
6:00 AM1 °FClear.7 mph92%30.35 "Hg15 mi
5:00 AM1 °FClear.5 mph85%30.36 "Hg15 mi
4:00 AM3 °FPassing clouds.5 mph85%30.37 "Hg15 mi
3:00 AM3 °FPassing clouds.6 mph85%30.39 "Hg15 mi
2:00 AM5 °FClear.3 mph78%30.39 "Hg15 mi
1:00 AM14 °FClear.8 mph73%30.37 "Hg15 mi
12:00 AM14 °FClear.7 mph73%30.38 "Hg15 mi
11:00 PM
Sat, Feb 28
16 °FClear.5 mph67%30.38 "Hg15 mi
10:00 PM14 °FClear.3 mph73%30.38 "Hg15 mi
9:00 PM19 °FClear.5 mph63%30.36 "Hg15 mi
8:00 PM19 °FClear.9 mph63%30.36 "Hg15 mi
7:00 PM21 °FPassing clouds.9 mph63%30.35 "Hg15 mi
6:00 PM25 °FPassing clouds.13 mph54%30.34 "Hg15 mi
5:00 PM25 °FPassing clouds.12 mph59%30.33 "Hg15 mi
4:00 PM27 °FPartly sunny.15 mph59%30.33 "Hg15 mi
3:00 PM25 °FScattered clouds.14 mph63%30.32 "Hg15 mi
2:00 PM25 °FPartly sunny.18 mph63%30.33 "Hg15 mi
1:00 PM21 °FScattered clouds.7 mph58%30.33 "Hg15 mi
12:00 PM18 °FPartly sunny.9 mph62%30.34 "Hg15 mi
11:00 AM16 °FBroken clouds.10 mph67%30.34 "Hg15 mi
10:00 AM14 °FBroken clouds.13 mph67%30.34 "Hg15 mi
9:00 AM10 °FBroken clouds.8 mph72%30.34 "Hg15 mi
Weather by CustomWeather, © 2015

See weather overviewHow to use our weather pages